Flag for Qatar Weather past 2 weeks in Al-Jamiliyah, Qatar

Now
76 °F

Passing clouds.


Feels Like: 78 °F
Forecast: 69 / 80 °F
Wind: 9 mph from Southeast

Location: Al Udeid

Current Time: Mar 27, 2015 at 7:37:59 PM

Latest Report: Mar 27, 2015 at 6:58 PM


Visibility: N/A

Pressure: 29.98 "Hg

Humidity: 64%

Dew point: 63 °F

Location of Al-JamiliyahLocation

Historic Weather in Al-Jamiliyah — Graph

°F

Al-Jamiliyah temperature yesterday

Maximum temperature yesterday: 88 °F (at 12:45 PM)
Minimum temperature yesterday: 67 °F (at 1:58 AM)
Average temperature yesterday: 77 °F

Past Weeks' High & Low Weather Summary

 TemperatureHumidityPressure
High94 °F (Mar 21, 1:58 PM)100% (Mar 23, 1:58 AM)30.12 "Hg (Mar 23, 1:58 AM)
Low56 °F (Mar 13, 4:58 AM)22% (Mar 21, 1:58 PM)29.78 "Hg (Mar 22, 2:58 AM)
Average74 °F64%29.95 "Hg
* Reported Mar 12 5:58 PM — Mar 27 5:58 PM, Al-Jamiliyah, Weather by CustomWeather, © 2015

Note: Actual official high and low records may vary slightly from our data, if they occured in-between our weather recording intervals... More about our weather records

Advertising

Al-Jamiliyah weather history for previous 24 hours

 ConditionsComfort  
Time TempWeatherWind HumidityBarometerVisibility
5:58 PM
Fri, Mar 27
78 °FPassing clouds.7 mph62%29.96 "HgN/A
4:58 PM81 °FPassing clouds.8 mph53%29.94 "HgN/A
3:58 PM84 °FScattered clouds.14 mph47%29.94 "HgN/A
2:58 PM83 °FBroken clouds.8 mph47%29.95 "HgN/A
1:58 PM82 °FBroken clouds.8 mph53%29.97 "HgN/A
12:58 PM80 °FPartly cloudy.9 mph54%30.00 "HgN/A
11:58 AM79 °FLight rain. Passing clouds.17 mph58%30.00 "HgN/A
10:58 AM80 °FPartly cloudy.14 mph59%30.04 "HgN/A
9:58 AM76 °FPartly cloudy.5 mph67%30.05 "HgN/A
8:58 AM74 °FPartly cloudy.3 mph75%30.04 "HgN/A
7:58 AM72 °FPassing clouds.3 mph83%30.03 "HgN/A
6:58 AM71 °FPartly cloudy.8 mph82%30.01 "HgN/A
5:58 AM70 °FPartly cloudy.6 mph88%30.02 "HgN/A
4:58 AM71 °FSprinkles. Mostly cloudy.8 mph85%29.98 "HgN/A
3:58 AM72 °FMostly cloudy.8 mph78%29.96 "HgN/A
2:58 AM72 °FSprinkles. Partly cloudy.2 mph75%29.95 "Hg5 mi
1:58 AM72 °FPassing clouds.2 mph72%29.94 "HgN/A
12:58 AM72 °FScattered clouds.7 mph72%29.97 "HgN/A
11:58 PM
Thu, Mar 26
73 °FSunny.9 mph71%30.00 "HgN/A
10:58 PM74 °FBroken clouds.12 mph59%30.02 "HgN/A
9:58 PM76 °FBroken clouds.2 mph50%30.00 "HgN/A
8:58 PM77 °FScattered clouds.8 mph45%29.99 "HgN/A
7:58 PM78 °FPartly sunny.6 mph46%29.99 "HgN/A
Weather by CustomWeather, © 2015

See weather overviewHow to use our weather pages